Location: Peach Mountain Observatory
(42.3967°N, 83.9367°W)
Time: 09:37:19
(UTC-05:00)

Transit 4A - Pass Details

Date: 19 January 2020
Orbit: 872 x 973 km, 66.8° (Epoch: 28 February)

Event Time Altitude Azimuth Distance (km) Brightness Sun altitude
Rises 17:50:02 0° 324° (NW) 3,469 11.0 -3.7°
Reaches altitude 10° 17:52:34 10° 320° (NW) 2,527 10.4 -4.2°
Maximum altitude 17:58:10 50° 246° (WSW) 1,104 8.9 -5.1°
Drops below altitude 10° 18:03:47 10° 173° (S) 2,537 10.4 -6.1°
Sets 18:06:21 0° 168° (SSE) 3,484 11.0 -6.5°
